Regional Weather Roundup
Issued by NWS

Home | Current Version | Previous Version | Text Only | Print | Product List | Glossary Off
Versions: 1 2 3 4 5 6 7 8 9 10 11 12 13 14 15 16 17 18 19 20 21 22 23 24 25 26 27 28 29 30 31 32 33 34 35 36 37 38 39 40 41 42 43 44 45 46 47 48 49 50

501
ASUS43 KFSD 170302
RWRSD

WEATHER ROUNDUP FOR SOUTH DAKOTA
NATIONAL WEATHER SERVICE SIOUX FALLS SD
900 PM CST SAT DEC 16 2017

NOTE: "FAIR" INDICATES FEW OR NO CLOUDS BELOW 12,000 FEET WITH NO
SIGNIFICANT WEATHER AND/OR OBSTRUCTIONS TO VISIBILITY.


SDZ001>005-009-010-012>017-170400-
NORTHWEST AND NORTH CENTRAL SOUTH DAKOTA

CITY           SKY/WX    TMP DP  RH WIND       PRES   REMARKS
BUFFALO          N/A     29  24  82 NW10      29.98R WCI  20
FAITH            N/A     32  26  78 NW8       30.05R WCI  25
MOBRIDGE       MOCLDY    34  28  79 NW3       30.03S
$$

SDZ012>016-024>037-041>051-057-063-072>074-170400-
SOUTHWEST AND SOUTH CENTRAL SOUTH DAKOTA

CITY           SKY/WX    TMP DP  RH WIND       PRES   REMARKS
RAPID CTY ARPT CLOUDY    32  23  69 N6        30.05R WCI  26
PIERRE         CLOUDY    34  31  88 CALM      30.06R
CUSTER         FLURRIES  24  19  81 NE7       29.96R WCI  16
ELLSWORTH AFB  CLOUDY    33  23  67 N7        30.04R WCI  27
PHILIP         CLOUDY    33  29  85 NW3       30.06R
PINE RIDGE     CLOUDY    32  26  78 N6        30.03R WCI  26
SPEARFISH      MIX PCPN  30  27  86 CALM      30.04S
WINNER         CLOUDY    38  32  79 N8        30.06R
$$

SDZ004>011-016>023-039-040-170400-
NORTHEAST SOUTH DAKOTA

CITY           SKY/WX    TMP DP  RH WIND       PRES   REMARKS
ABERDEEN       CLOUDY    32  29  88 SW7       30.07R WCI  26
WATERTOWN      CLOUDY    28  28 100 N7        30.04R WCI  21
BROOKINGS      CLOUDY    33  30  88 NE5       30.05R WCI  29
SISSETON         N/A     30  29  96 SE3       30.06S
$$

SDZ017-020-022-023-036>040-048>070-170400-
SOUTHEAST SOUTH DAKOTA

CITY           SKY/WX    TMP DP  RH WIND       PRES   REMARKS
SIOUX FALLS    MOCLDY    29  27  92 N6        30.05R WCI  23
HURON          CLOUDY    35  32  88 CALM      30.07R
CHAMBERLAIN    CLOUDY    39  35  85 CALM      30.06R
MITCHELL       CLOUDY    32  31  96 CALM      30.07R
YANKTON        PTCLDY    33  29  85 N8        30.04R WCI  26
$$

ABBREVIATIONS USED IN REMARKS
   TC - TEMPERATURE IN CELSIUS
  WCI - WIND CHILL INDEX
   HX - HEAT INDEX
  VSB - VISIBILITY





USA.gov is the U.S. government's official web portal to all federal, state and local government web resources and services.